| time (UTC) | temp F | wind direction | speed MPH | gust MPH | rain 1hr in | rain 24hr in | rain mn in | humidity % | barometer mb |
| 20260505153145 | 78 | 225 | 3.0 | 8.0 | 0.00 | 0.00 | 0.00 | 76 | 1003.7 |
| 20260505152645 | 78 | 247 | 2.0 | 7.0 | 0.00 | 0.00 | 0.00 | 76 | 1003.8 |
| 20260505152145 | 77 | 247 | 2.0 | 7.0 | 0.00 | 0.00 | 0.00 | 77 | 1003.9 |
| 20260505151645 | 77 | 225 | 3.0 | 12.0 | 0.00 | 0.00 | 0.00 | 77 | 1003.8 |
| 20260505151145 | 77 | 225 | 2.0 | 8.0 | 0.00 | 0.00 | 0.00 | 76 | 1003.9 |
| 20260505150645 | 77 | 225 | 2.0 | 5.0 | 0.00 | 0.00 | 0.00 | 78 | 1003.8 |
| 20260505150145 | 77 | 247 | 2.0 | 6.0 | 0.00 | 0.00 | 0.00 | 79 | 1003.8 |
| 20260505140645 | 73 | 225 | 2.0 | 6.0 | 0.00 | 0.00 | 0.00 | 84 | 1003.8 |
| 20260505140145 | 73 | 225 | 1.0 | 4.0 | 0.00 | 0.00 | 0.00 | 84 | 1003.8 |
| 20260505130145 | 72 | 225 | 2.0 | 11.0 | 0.00 | 0.00 | 0.00 | 85 | 1003.9 |
| 20260505124645 | 71 | 225 | 4.0 | 15.0 | 0.00 | 0.00 | 0.00 | 86 | 1003.6 |
| 20260505124145 | 71 | 225 | 3.0 | 11.0 | 0.00 | 0.00 | 0.00 | 86 | 1003.6 |
| 20260505123645 | 71 | 180 | 3.0 | 11.0 | 0.00 | 0.00 | 0.00 | 86 | 1003.5 |
| 20260505123145 | 71 | 225 | 4.0 | 13.0 | 0.00 | 0.00 | 0.00 | 86 | 1003.6 |
| 20260505122645 | 71 | 180 | 3.0 | 8.0 | 0.00 | 0.00 | 0.00 | 87 | 1003.6 |
| 20260505122145 | 71 | 180 | 3.0 | 9.0 | 0.00 | 0.00 | 0.00 | 87 | 1003.6 |
| 20260505121645 | 71 | 247 | 3.0 | 8.0 | 0.00 | 0.00 | 0.00 | 87 | 1003.5 |
| 20260505121145 | 71 | 247 | 2.0 | 8.0 | 0.00 | 0.00 | 0.00 | 87 | 1003.4 |
| 20260505120645 | 70 | 180 | 2.0 | 8.0 | 0.00 | 0.00 | 0.00 | 87 | 1003.3 |
| 20260505120145 | 70 | 225 | 2.0 | 5.0 | 0.00 | 0.00 | 0.00 | 87 | 1003.3 |
| 20260505115645 | 70 | 225 | 2.0 | 6.0 | 0.00 | 0.00 | 0.00 | 87 | 1003.3 |
| 20260505115145 | 70 | 180 | 4.0 | 9.0 | 0.00 | 0.00 | 0.00 | 87 | 1003.2 |
| 20260505114645 | 70 | 180 | 3.0 | 9.0 | 0.00 | 0.00 | 0.00 | 87 | 1003.1 |
| 20260505114145 | 70 | 225 | 2.0 | 12.0 | 0.00 | 0.00 | 0.00 | 87 | 1003.1 |
| 20260505113645 | 70 | 180 | 2.0 | 6.0 | 0.00 | 0.00 | 0.00 | 87 | 1003.2 |
| 20260505113145 | 71 | 247 | 2.0 | 10.0 | 0.00 | 0.00 | 0.00 | 86 | 1003.3 |
| 20260505112645 | 71 | 202 | 4.0 | 12.0 | 0.00 | 0.00 | 0.00 | 86 | 1003.2 |
| 20260505112145 | 71 | 247 | 2.0 | 10.0 | 0.00 | 0.00 | 0.00 | 86 | 1003.1 |
| 20260505111645 | 71 | 225 | 3.0 | 11.0 | 0.00 | 0.00 | 0.00 | 86 | 1003.1 |
| 20260505111145 | 71 | 180 | 3.0 | 9.0 | 0.00 | 0.00 | 0.00 | 85 | 1003.0 |
| 20260505110645 | 71 | 225 | 2.0 | 10.0 | 0.00 | 0.00 | 0.00 | 85 | 1003.0 |
| 20260505110145 | 71 | 202 | 1.0 | 8.0 | 0.00 | 0.00 | 0.00 | 85 | 1003.1 |
| 20260505102145 | 71 | 225 | 3.0 | 11.0 | 0.00 | 0.00 | 0.00 | 86 | 1003.1 |
| 20260505101645 | 71 | 225 | 2.0 | 11.0 | 0.00 | 0.00 | 0.00 | 86 | 1003.1 |
| 20260505101145 | 71 | 225 | 4.0 | 16.0 | 0.00 | 0.00 | 0.00 | 86 | 1003.1 |
| 20260505100645 | 71 | 157 | 3.0 | 9.0 | 0.00 | 0.00 | 0.00 | 86 | 1003.0 |
| 20260505100145 | 71 | 202 | 4.0 | 14.0 | 0.00 | 0.00 | 0.00 | 86 | 1003.0 |
| 20260505095645 | 71 | 180 | 3.0 | 12.0 | 0.00 | 0.00 | 0.00 | 86 | 1003.1 |
| 20260505095145 | 71 | 225 | 3.0 | 11.0 | 0.00 | 0.00 | 0.00 | 86 | 1003.2 |
| 20260505094645 | 71 | 202 | 3.0 | 13.0 | 0.00 | 0.00 | 0.00 | 86 | 1003.3 |
| 20260505094145 | 71 | 225 | 3.0 | 12.0 | 0.00 | 0.00 | 0.00 | 86 | 1003.1 |
| 20260505093645 | 71 | 157 | 3.0 | 8.0 | 0.00 | 0.00 | 0.00 | 86 | 1003.3 |
| 20260505093145 | 71 | 225 | 3.0 | 8.0 | 0.00 | 0.00 | 0.00 | 86 | 1003.3 |
| 20260505092645 | 71 | 225 | 3.0 | 13.0 | 0.00 | 0.00 | 0.00 | 86 | 1003.5 |
| 20260505092145 | 70 | 202 | 3.0 | 11.0 | 0.00 | 0.00 | 0.00 | 86 | 1003.5 |
| 20260505091645 | 70 | 180 | 2.0 | 12.0 | 0.00 | 0.00 | 0.00 | 86 | 1003.5 |
| 20260505091145 | 70 | 225 | 3.0 | 7.0 | 0.00 | 0.00 | 0.00 | 86 | 1003.5 |
| 20260505090645 | 70 | 225 | 3.0 | 13.0 | 0.00 | 0.00 | 0.00 | 86 | 1003.4 |
| 20260505090145 | 70 | 225 | 3.0 | 15.0 | 0.00 | 0.00 | 0.00 | 86 | 1003.5 |
| 20260505085645 | 70 | 225 | 4.0 | 15.0 | 0.00 | 0.00 | 0.00 | 86 | 1003.5 |
| 20260505085145 | 70 | 225 | 3.0 | 13.0 | 0.00 | 0.00 | 0.00 | 86 | 1003.4 |
| 20260505084645 | 70 | 225 | 3.0 | 9.0 | 0.00 | 0.00 | 0.00 | 86 | 1003.4 |
| 20260505084145 | 71 | 225 | 4.0 | 13.0 | 0.00 | 0.00 | 0.00 | 86 | 1003.5 |
| 20260505083645 | 71 | 202 | 4.0 | 14.0 | 0.00 | 0.00 | 0.00 | 85 | 1003.4 |
| 20260505083145 | 71 | 225 | 2.0 | 6.0 | 0.00 | 0.00 | 0.00 | 85 | 1003.4 |
| 20260505082645 | 71 | 225 | 4.0 | 13.0 | 0.00 | 0.00 | 0.00 | 85 | 1003.4 |
| 20260505082145 | 71 | 202 | 3.0 | 11.0 | 0.00 | 0.00 | 0.00 | 85 | 1003.4 |
| 20260505081645 | 71 | 202 | 4.0 | 13.0 | 0.00 | 0.00 | 0.00 | 85 | 1003.4 |
| 20260505081145 | 71 | 225 | 3.0 | 9.0 | 0.00 | 0.00 | 0.00 | 84 | 1003.6 |
| 20260505080645 | 71 | 225 | 4.0 | 12.0 | 0.00 | 0.00 | 0.00 | 84 | 1003.6 |
| 20260505080145 | 71 | 202 | 2.0 | 10.0 | 0.00 | 0.00 | 0.00 | 84 | 1003.6 |
| 20260505075645 | 71 | 225 | 3.0 | 9.0 | 0.00 | 0.00 | 0.00 | 84 | 1003.7 |
| 20260505075145 | 71 | 180 | 3.0 | 9.0 | 0.00 | 0.00 | 0.00 | 84 | 1003.7 |
| 20260505074645 | 71 | 225 | 3.0 | 10.0 | 0.00 | 0.00 | 0.00 | 83 | 1003.8 |
| 20260505074145 | 71 | 225 | 2.0 | 10.0 | 0.00 | 0.00 | 0.00 | 83 | 1003.9 |
| 20260505073645 | 71 | 225 | 3.0 | 9.0 | 0.00 | 0.00 | 0.00 | 83 | 1004.0 |
| 20260505073145 | 71 | 225 | 3.0 | 12.0 | 0.00 | 0.00 | 0.00 | 83 | 1004.0 |
| 20260505072645 | 71 | 225 | 2.0 | 9.0 | 0.00 | 0.00 | 0.00 | 82 | 1004.1 |
| 20260505072145 | 72 | 225 | 3.0 | 12.0 | 0.00 | 0.00 | 0.00 | 82 | 1004.1 |
| 20260505071645 | 72 | 225 | 2.0 | 12.0 | 0.00 | 0.00 | 0.00 | 82 | 1004.1 |
| 20260505071145 | 72 | 202 | 3.0 | 13.0 | 0.00 | 0.00 | 0.00 | 82 | 1004.2 |
| 20260505070645 | 72 | 225 | 4.0 | 13.0 | 0.00 | 0.00 | 0.00 | 82 | 1004.2 |
| 20260505070145 | 72 | 225 | 3.0 | 6.0 | 0.00 | 0.00 | 0.00 | 81 | 1004.4 |
| 20260505065645 | 72 | 202 | 3.0 | 11.0 | 0.00 | 0.00 | 0.00 | 81 | 1004.4 |
| 20260505065145 | 72 | 225 | 3.0 | 11.0 | 0.00 | 0.00 | 0.00 | 81 | 1004.6 |
| 20260505064645 | 72 | 225 | 3.0 | 11.0 | 0.00 | 0.00 | 0.00 | 81 | 1004.6 |
| 20260505064145 | 72 | 202 | 3.0 | 10.0 | 0.00 | 0.00 | 0.00 | 81 | 1004.6 |
| 20260505063645 | 72 | 202 | 4.0 | 15.0 | 0.00 | 0.00 | 0.00 | 81 | 1004.7 |
| 20260505063145 | 72 | 225 | 2.0 | 10.0 | 0.00 | 0.00 | 0.00 | 80 | 1004.8 |
| 20260505062645 | 72 | 225 | 3.0 | 12.0 | 0.00 | 0.00 | 0.00 | 80 | 1004.7 |
| 20260505062145 | 72 | 247 | 3.0 | 7.0 | 0.00 | 0.00 | 0.00 | 80 | 1004.7 |
| 20260505061645 | 72 | 180 | 4.0 | 15.0 | 0.00 | 0.00 | 0.00 | 80 | 1004.9 |
| 20260505061145 | 72 | 225 | 4.0 | 18.0 | 0.00 | 0.00 | 0.00 | 80 | 1004.7 |
| 20260505060645 | 72 | 225 | 6.0 | 18.0 | 0.00 | 0.00 | 0.00 | 80 | 1004.7 |
| 20260505060145 | 72 | 180 | 6.0 | 19.0 | 0.00 | 0.00 | 0.00 | 80 | 1004.7 |
| 20260505055645 | 72 | 180 | 7.0 | 15.0 | 0.00 | 0.00 | 0.00 | 80 | 1004.7 |
| 20260505055145 | 72 | 225 | 5.0 | 12.0 | 0.00 | 0.00 | 0.00 | 79 | 1004.9 |
| 20260505054645 | 72 | 180 | 5.0 | 13.0 | 0.00 | 0.00 | 0.00 | 79 | 1005.0 |
| 20260505054145 | 72 | 180 | 5.0 | 12.0 | 0.00 | 0.00 | 0.00 | 79 | 1005.1 |
| 20260505053645 | 72 | 180 | 6.0 | 18.0 | 0.00 | 0.00 | 0.00 | 79 | 1005.1 |
| 20260505053145 | 72 | 180 | 5.0 | 11.0 | 0.00 | 0.00 | 0.00 | 79 | 1005.1 |
| 20260505052645 | 72 | 180 | 6.0 | 11.0 | 0.00 | 0.00 | 0.00 | 78 | 1005.2 |
| 20260505052145 | 72 | 180 | 5.0 | 12.0 | 0.00 | 0.00 | 0.00 | 78 | 1005.3 |
| 20260505051645 | 72 | 180 | 6.0 | 14.0 | 0.00 | 0.00 | 0.00 | 78 | 1005.3 |
| 20260505051145 | 72 | 202 | 6.0 | 17.0 | 0.00 | 0.00 | 0.00 | 77 | 1005.4 |
| 20260505050645 | 72 | 180 | 7.0 | 19.0 | 0.00 | 0.00 | 0.00 | 77 | 1005.3 |
| 20260505050145 | 72 | 180 | 8.0 | 17.0 | 0.00 | 0.00 | 0.00 | 77 | 1005.3 |
| 20260505041645 | 73 | 180 | 6.0 | 15.0 | 0.00 | 0.00 | 0.00 | 75 | 1005.5 |
| 20260505041145 | 73 | 180 | 7.0 | 15.0 | 0.00 | 0.00 | 0.00 | 75 | 1005.6 |
| 20260505040645 | 73 | 157 | 7.0 | 17.0 | 0.00 | 0.00 | 0.00 | 75 | 1005.7 |
| 20260505040145 | 73 | 180 | 6.0 | 13.0 | 0.00 | 0.00 | 0.00 | 74 | 1005.6 |
| 20260505035645 | 73 | 180 | 7.0 | 15.0 | 0.00 | 0.00 | 0.00 | 74 | 1005.6 |
| 20260505035145 | 73 | 180 | 7.0 | 14.0 | 0.00 | 0.00 | 0.00 | 74 | 1005.5 |
| 20260505034645 | 73 | 180 | 8.0 | 15.0 | 0.00 | 0.00 | 0.00 | 74 | 1005.4 |
| 20260505034145 | 73 | 180 | 7.0 | 17.0 | 0.00 | 0.00 | 0.00 | 74 | 1005.6 |
| 20260505033645 | 73 | 180 | 7.0 | 15.0 | 0.00 | 0.00 | 0.00 | 74 | 1005.5 |
| 20260505033145 | 73 | 180 | 8.0 | 18.0 | 0.00 | 0.00 | 0.00 | 74 | 1005.7 |
| 20260505032645 | 73 | 180 | 8.0 | 17.0 | 0.00 | 0.00 | 0.00 | 73 | 1005.6 |
| 20260505032145 | 73 | 180 | 6.0 | 15.0 | 0.00 | 0.00 | 0.00 | 73 | 1005.7 |
| 20260505031645 | 74 | 180 | 7.0 | 14.0 | 0.00 | 0.00 | 0.00 | 73 | 1005.6 |
| 20260505031145 | 74 | 180 | 6.0 | 15.0 | 0.00 | 0.00 | 0.00 | 73 | 1005.5 |
| 20260505030645 | 74 | 180 | 6.0 | 15.0 | 0.00 | 0.00 | 0.00 | 73 | 1005.6 |
| 20260505030145 | 74 | 180 | 6.0 | 14.0 | 0.00 | 0.00 | 0.00 | 73 | 1005.5 |
| 20260505025645 | 74 | 180 | 5.0 | 15.0 | 0.00 | 0.00 | 0.00 | 73 | 1005.5 |
| 20260505025145 | 74 | 180 | 5.0 | 12.0 | 0.00 | 0.00 | 0.00 | 72 | 1005.5 |
| 20260505024645 | 74 | 180 | 6.0 | 14.0 | 0.00 | 0.00 | 0.00 | 72 | 1005.5 |
| 20260505024145 | 74 | 225 | 5.0 | 12.0 | 0.00 | 0.00 | 0.00 | 72 | 1005.5 |
| 20260505023645 | 74 | 180 | 5.0 | 14.0 | 0.00 | 0.00 | 0.00 | 72 | 1005.5 |
| 20260505023145 | 74 | 180 | 5.0 | 19.0 | 0.00 | 0.00 | 0.00 | 71 | 1005.5 |
| 20260505022645 | 74 | 202 | 4.0 | 12.0 | 0.00 | 0.00 | 0.00 | 71 | 1005.5 |
| 20260505022145 | 74 | 225 | 5.0 | 13.0 | 0.00 | 0.00 | 0.00 | 71 | 1005.4 |
| 20260505021645 | 74 | 180 | 5.0 | 13.0 | 0.00 | 0.00 | 0.00 | 71 | 1005.4 |
| 20260505021145 | 74 | 225 | 3.0 | 12.0 | 0.00 | 0.00 | 0.00 | 70 | 1005.5 |
| 20260505020645 | 75 | 202 | 3.0 | 10.0 | 0.00 | 0.00 | 0.00 | 70 | 1005.4 |
| 20260505020145 | 75 | 202 | 4.0 | 12.0 | 0.00 | 0.00 | 0.00 | 70 | 1005.4 |
| 20260505015645 | 75 | 225 | 3.0 | 10.0 | 0.00 | 0.00 | 0.00 | 70 | 1005.4 |
| 20260505015145 | 75 | 202 | 5.0 | 13.0 | 0.00 | 0.00 | 0.00 | 70 | 1005.4 |
| 20260505014645 | 75 | 225 | 4.0 | 8.0 | 0.00 | 0.00 | 0.00 | 69 | 1005.4 |
| 20260505014145 | 75 | 180 | 6.0 | 14.0 | 0.00 | 0.00 | 0.00 | 69 | 1005.5 |
| 20260505013645 | 75 | 180 | 6.0 | 16.0 | 0.00 | 0.00 | 0.00 | 68 | 1005.5 |
| 20260505013145 | 75 | 225 | 5.0 | 12.0 | 0.00 | 0.00 | 0.00 | 68 | 1005.4 |
| 20260505012645 | 75 | 225 | 4.0 | 11.0 | 0.00 | 0.00 | 0.00 | 68 | 1005.4 |
| 20260505012145 | 75 | 202 | 4.0 | 12.0 | 0.00 | 0.00 | 0.00 | 68 | 1005.5 |
| 20260505011645 | 76 | 180 | 5.0 | 16.0 | 0.00 | 0.00 | 0.00 | 67 | 1005.4 |
| 20260505011145 | 76 | 180 | 5.0 | 15.0 | 0.00 | 0.00 | 0.00 | 67 | 1005.4 |
| 20260505010645 | 76 | 225 | 5.0 | 15.0 | 0.00 | 0.00 | 0.00 | 67 | 1005.4 |
| 20260505010145 | 76 | 180 | 5.0 | 16.0 | 0.00 | 0.00 | 0.00 | 66 | 1005.4 |
| 20260505005645 | 76 | 202 | 5.0 | 13.0 | 0.00 | 0.00 | 0.00 | 66 | 1005.3 |
| 20260505005145 | 76 | 225 | 6.0 | 16.0 | 0.00 | 0.00 | 0.00 | 65 | 1005.3 |
| 20260505004645 | 76 | 180 | 6.0 | 18.0 | 0.00 | 0.00 | 0.00 | 65 | 1005.3 |
| 20260505004145 | 77 | 180 | 10.0 | 23.0 | 0.00 | 0.00 | 0.00 | 65 | 1005.4 |
| 20260505003645 | 77 | 225 | 6.0 | 16.0 | 0.00 | 0.00 | 0.00 | 64 | 1005.5 |
| 20260505003145 | 77 | 202 | 7.0 | 19.0 | 0.00 | 0.00 | 0.00 | 64 | 1005.5 |
| 20260505002645 | 77 | 180 | 7.0 | 20.0 | 0.00 | 0.00 | 0.00 | 63 | 1005.4 |
| 20260505002145 | 78 | 225 | 7.0 | 21.0 | 0.00 | 0.00 | 0.00 | 63 | 1005.4 |
| 20260505001645 | 78 | 225 | 4.0 | 15.0 | 0.00 | 0.00 | 0.00 | 63 | 1005.5 |
| 20260505001145 | 78 | 202 | 6.0 | 18.0 | 0.00 | 0.00 | 0.00 | 63 | 1005.5 |
| 20260505000645 | 78 | 202 | 10.0 | 24.0 | 0.00 | 0.00 | 0.00 | 63 | 1005.3 |
| 20260505000145 | 78 | 180 | 8.0 | 20.0 | 0.00 | 0.00 | 0.00 | 63 | 1005.3 |
| 20260504235645 | 78 | 180 | 9.0 | 18.0 | 0.00 | 0.00 | 0.00 | 63 | 1005.3 |
| 20260504235145 | 78 | 180 | 8.0 | 20.0 | 0.00 | 0.00 | 0.00 | 63 | 1005.6 |
| 20260504234645 | 78 | 180 | 7.0 | 18.0 | 0.00 | 0.00 | 0.00 | 63 | 1005.6 |
| 20260504234145 | 78 | 202 | 6.0 | 17.0 | 0.00 | 0.00 | 0.00 | 63 | 1005.6 |
| 20260504233645 | 78 | 157 | 6.0 | 15.0 | 0.00 | 0.00 | 0.00 | 62 | 1005.7 |
| 20260504233145 | 79 | 225 | 5.0 | 11.0 | 0.00 | 0.00 | 0.00 | 61 | 1005.8 |
| 20260504232645 | 79 | 225 | 7.0 | 15.0 | 0.00 | 0.00 | 0.00 | 61 | 1005.6 |
| 20260504232145 | 79 | 225 | 7.0 | 19.0 | 0.00 | 0.00 | 0.00 | 61 | 1005.7 |
| 20260504231645 | 79 | 180 | 5.0 | 16.0 | 0.00 | 0.00 | 0.00 | 60 | 1005.9 |
| 20260504231145 | 79 | 202 | 5.0 | 15.0 | 0.00 | 0.00 | 0.00 | 59 | 1006.0 |
| 20260504230645 | 79 | 202 | 6.0 | 12.0 | 0.00 | 0.00 | 0.00 | 59 | 1005.9 |
| 20260504230145 | 80 | 180 | 10.0 | 23.0 | 0.00 | 0.00 | 0.00 | 59 | 1005.9 |
| 20260504225645 | 80 | 180 | 6.0 | 19.0 | 0.00 | 0.00 | 0.00 | 59 | 1006.2 |
| 20260504225145 | 80 | 180 | 6.0 | 17.0 | 0.00 | 0.00 | 0.00 | 59 | 1006.2 |
| 20260504224645 | 80 | 225 | 8.0 | 19.0 | 0.00 | 0.00 | 0.00 | 60 | 1006.1 |
| 20260504224145 | 80 | 180 | 8.0 | 19.0 | 0.00 | 0.00 | 0.00 | 59 | 1006.0 |
| 20260504223645 | 80 | 180 | 9.0 | 23.0 | 0.00 | 0.00 | 0.00 | 59 | 1006.1 |
| 20260504223145 | 80 | 202 | 12.0 | 25.0 | 0.00 | 0.00 | 0.00 | 59 | 1006.0 |
| 20260504222645 | 79 | 180 | 10.0 | 23.0 | 0.00 | 0.00 | 0.00 | 60 | 1006.0 |
| 20260504222145 | 80 | 180 | 12.0 | 21.0 | 0.00 | 0.00 | 0.00 | 59 | 1006.1 |
| 20260504221645 | 80 | 180 | 11.0 | 22.0 | 0.00 | 0.00 | 0.00 | 58 | 1006.1 |
| 20260504221145 | 80 | 180 | 12.0 | 26.0 | 0.00 | 0.00 | 0.00 | 59 | 1006.2 |
| 20260504220645 | 80 | 202 | 11.0 | 24.0 | 0.00 | 0.00 | 0.00 | 58 | 1006.2 |
| 20260504220145 | 80 | 180 | 10.0 | 23.0 | 0.00 | 0.00 | 0.00 | 57 | 1006.3 |
| 20260504215645 | 80 | 180 | 13.0 | 25.0 | 0.00 | 0.00 | 0.00 | 57 | 1006.3 |
| 20260504215145 | 80 | 225 | 6.0 | 15.0 | 0.00 | 0.00 | 0.00 | 58 | 1006.4 |
| 20260504214645 | 80 | 202 | 8.0 | 25.0 | 0.00 | 0.00 | 0.00 | 57 | 1006.6 |
| 20260504214145 | 80 | 180 | 11.0 | 24.0 | 0.00 | 0.00 | 0.00 | 56 | 1006.6 |
| 20260504213645 | 80 | 202 | 8.0 | 18.0 | 0.00 | 0.00 | 0.00 | 58 | 1006.7 |
| 20260504213145 | 80 | 180 | 10.0 | 24.0 | 0.00 | 0.00 | 0.00 | 56 | 1006.8 |
| 20260504212645 | 79 | 202 | 10.0 | 23.0 | 0.00 | 0.00 | 0.00 | 57 | 1006.7 |
| 20260504212145 | 79 | 180 | 8.0 | 21.0 | 0.00 | 0.00 | 0.00 | 57 | 1007.0 |
| 20260504211645 | 79 | 180 | 12.0 | 24.0 | 0.00 | 0.00 | 0.00 | 56 | 1007.0 |
| 20260504211145 | 79 | 180 | 9.0 | 21.0 | 0.00 | 0.00 | 0.00 | 55 | 1007.2 |
| 20260504210645 | 79 | 180 | 12.0 | 23.0 | 0.00 | 0.00 | 0.00 | 55 | 1007.3 |
| 20260504210145 | 79 | 180 | 12.0 | 22.0 | 0.00 | 0.00 | 0.00 | 54 | 1007.4 |
| 20260504205645 | 79 | 225 | 11.0 | 31.0 | 0.00 | 0.00 | 0.00 | 55 | 1007.4 |
| 20260504205145 | 80 | 180 | 16.0 | 31.0 | 0.00 | 0.00 | 0.00 | 54 | 1007.6 |
| 20260504204645 | 80 | 180 | 7.0 | 21.0 | 0.00 | 0.00 | 0.00 | 55 | 1007.5 |
| 20260504204145 | 80 | 180 | 9.0 | 19.0 | 0.00 | 0.00 | 0.00 | 54 | 1007.7 |
| 20260504203645 | 80 | 180 | 10.0 | 27.0 | 0.00 | 0.00 | 0.00 | 53 | 1007.8 |
| 20260504203145 | 80 | 180 | 10.0 | 21.0 | 0.00 | 0.00 | 0.00 | 55 | 1008.0 |
| 20260504202645 | 80 | 180 | 10.0 | 23.0 | 0.00 | 0.00 | 0.00 | 54 | 1008.0 |
| 20260504202145 | 80 | 225 | 7.0 | 30.0 | 0.00 | 0.00 | 0.00 | 54 | 1008.1 |
| 20260504201645 | 80 | 180 | 13.0 | 30.0 | 0.00 | 0.00 | 0.00 | 53 | 1008.2 |
| 20260504201145 | 80 | 225 | 4.0 | 11.0 | 0.00 | 0.00 | 0.00 | 53 | 1008.4 |
| 20260504200645 | 79 | 202 | 10.0 | 20.0 | 0.00 | 0.00 | 0.00 | 54 | 1008.6 |
| 20260504200145 | 78 | 180 | 11.0 | 23.0 | 0.00 | 0.00 | 0.00 | 53 | 1008.7 |
| 20260504195645 | 78 | 180 | 10.0 | 23.0 | 0.00 | 0.00 | 0.00 | 53 | 1008.7 |
| 20260504195145 | 79 | 180 | 13.0 | 27.0 | 0.00 | 0.00 | 0.00 | 53 | 1008.7 |
| 20260504194645 | 79 | 225 | 11.0 | 23.0 | 0.00 | 0.00 | 0.00 | 52 | 1008.8 |
| 20260504194145 | 79 | 180 | 8.0 | 23.0 | 0.00 | 0.00 | 0.00 | 52 | 1008.9 |
| 20260504193645 | 79 | 157 | 10.0 | 25.0 | 0.00 | 0.00 | 0.00 | 53 | 1008.8 |
| 20260504193145 | 79 | 202 | 10.0 | 23.0 | 0.00 | 0.00 | 0.00 | 51 | 1008.9 |
| 20260504192645 | 79 | 180 | 6.0 | 20.0 | 0.00 | 0.00 | 0.00 | 51 | 1009.1 |
| 20260504192145 | 79 | 225 | 4.0 | 12.0 | 0.00 | 0.00 | 0.00 | 51 | 1009.2 |
| 20260504191645 | 78 | 180 | 11.0 | 24.0 | 0.00 | 0.00 | 0.00 | 51 | 1009.3 |
| 20260504191145 | 78 | 180 | 10.0 | 24.0 | 0.00 | 0.00 | 0.00 | 50 | 1009.4 |
| 20260504190645 | 78 | 180 | 13.0 | 22.0 | 0.00 | 0.00 | 0.00 | 51 | 1009.4 |
| 20260504190145 | 78 | 180 | 6.0 | 17.0 | 0.00 | 0.00 | 0.00 | 51 | 1009.5 |
| 20260504185645 | 78 | 180 | 12.0 | 23.0 | 0.00 | 0.00 | 0.00 | 50 | 1009.7 |
| 20260504185145 | 78 | 180 | 11.0 | 26.0 | 0.00 | 0.00 | 0.00 | 52 | 1009.6 |
| 20260504184645 | 77 | 180 | 13.0 | 24.0 | 0.00 | 0.00 | 0.00 | 50 | 1009.5 |
| 20260504184145 | 77 | 180 | 10.0 | 20.0 | 0.00 | 0.00 | 0.00 | 50 | 1009.6 |
| 20260504183645 | 77 | 180 | 8.0 | 22.0 | 0.00 | 0.00 | 0.00 | 50 | 1009.7 |
| 20260504183145 | 77 | 180 | 13.0 | 23.0 | 0.00 | 0.00 | 0.00 | 50 | 1009.9 |
| 20260504182645 | 77 | 180 | 9.0 | 21.0 | 0.00 | 0.00 | 0.00 | 51 | 1009.9 |
| 20260504182145 | 77 | 180 | 6.0 | 20.0 | 0.00 | 0.00 | 0.00 | 52 | 1010.0 |
| 20260504181645 | 77 | 180 | 10.0 | 22.0 | 0.00 | 0.00 | 0.00 | 51 | 1010.1 |
| 20260504181145 | 77 | 180 | 11.0 | 25.0 | 0.00 | 0.00 | 0.00 | 51 | 1010.1 |
| 20260504180645 | 76 | 202 | 10.0 | 25.0 | 0.00 | 0.00 | 0.00 | 52 | 1010.2 |
| 20260504180145 | 77 | 180 | 13.0 | 26.0 | 0.00 | 0.00 | 0.00 | 51 | 1010.3 |
| 20260504175645 | 77 | 225 | 8.0 | 21.0 | 0.00 | 0.00 | 0.00 | 52 | 1010.3 |
| 20260504175145 | 77 | 225 | 6.0 | 18.0 | 0.00 | 0.00 | 0.00 | 53 | 1010.4 |
| 20260504174645 | 77 | 225 | 8.0 | 18.0 | 0.00 | 0.00 | 0.00 | 52 | 1010.7 |
| 20260504174145 | 77 | 180 | 3.0 | 11.0 | 0.00 | 0.00 | 0.00 | 51 | 1010.8 |
| 20260504173645 | 76 | 225 | 4.0 | 12.0 | 0.00 | 0.00 | 0.00 | 51 | 1010.8 |
| 20260504173145 | 76 | 202 | 6.0 | 21.0 | 0.00 | 0.00 | 0.00 | 52 | 1011.0 |
| 20260504172645 | 76 | 180 | 7.0 | 24.0 | 0.00 | 0.00 | 0.00 | 51 | 1011.0 |
| 20260504172145 | 76 | 180 | 9.0 | 19.0 | 0.00 | 0.00 | 0.00 | 51 | 1011.2 |
| 20260504171645 | 76 | 180 | 8.0 | 26.0 | 0.00 | 0.00 | 0.00 | 52 | 1011.2 |
| 20260504171145 | 76 | 225 | 2.0 | 5.0 | 0.00 | 0.00 | 0.00 | 53 | 1011.3 |
| 20260504170645 | 75 | 225 | 3.0 | 8.0 | 0.00 | 0.00 | 0.00 | 51 | 1011.5 |
| 20260504170145 | 75 | 225 | 5.0 | 17.0 | 0.00 | 0.00 | 0.00 | 52 | 1011.6 |
| 20260504160145 | 73 | 225 | 5.0 | 15.0 | 0.00 | 0.00 | 0.00 | 56 | 1012.1 |